Time,TemperatureF,DewpointF,PressureIn,WindDirection,WindDirectionDegrees,WindSpeedMPH,WindSpeedGustMPH,Humidity,HourlyPrecipIn,Conditions,Clouds,dailyrainin,SolarRadiationWatts/m^2,SoftwareType,DateUTC
2013-07-23 00:11:00,58.0,46.0,-100.00,ESE,110,14.0,19.0,64,0.00,,,0.00,0.000000,,2013-07-23 06:11:00,
2013-07-23 00:22:00,58.0,46.0,-100.00,ESE,110,14.0,19.0,64,0.00,,,0.00,0.000000,,2013-07-23 06:22:00,
2013-07-23 00:33:00,58.0,46.0,-100.00,ESE,110,14.0,19.0,64,0.00,,,0.00,0.000000,,2013-07-23 06:33:00,
2013-07-23 00:42:00,58.0,46.0,-100.00,ESE,110,14.0,19.0,64,0.00,,,0.00,0.000000,,2013-07-23 06:42:00,
2013-07-23 00:52:00,59.0,41.0,-100.00,East,100,6.0,17.0,51,-99.99,,,0.00,0.000000,,2013-07-23 06:52:00,
2013-07-23 01:33:00,59.0,41.0,-100.00,East,100,6.0,17.0,51,-99.99,,,0.00,0.000000,,2013-07-23 07:33:00,
2013-07-23 01:42:00,59.0,41.0,-100.00,East,100,6.0,17.0,51,-99.99,,,0.00,0.000000,,2013-07-23 07:42:00,
2013-07-23 04:52:00,60.0,39.0,-100.00,SW,220,8.0,11.0,45,-99.99,,,0.00,0.000000,,2013-07-23 10:52:00,
2013-07-23 06:33:00,61.0,36.0,-100.00,SW,234,8.0,14.0,40,-99.99,,,0.00,0.000000,,2013-07-23 12:33:00,
2013-07-23 06:43:00,61.0,36.0,-100.00,SW,234,8.0,14.0,40,-99.99,,,0.00,0.000000,,2013-07-23 12:43:00,
2013-07-23 07:52:00,61.0,37.0,-100.00,WSW,237,12.0,16.0,41,-99.99,,,0.00,250.000000,,2013-07-23 13:52:00,
2013-07-23 08:12:00,61.0,37.0,-100.00,WSW,237,12.0,16.0,41,-99.99,,,0.00,250.000000,,2013-07-23 14:12:00,
2013-07-23 08:22:00,61.0,37.0,-100.00,WSW,237,12.0,16.0,41,-99.99,,,0.00,250.000000,,2013-07-23 14:22:00,
2013-07-23 08:32:00,61.0,37.0,-100.00,WSW,237,12.0,16.0,41,-99.99,,,0.00,250.000000,,2013-07-23 14:32:00,
2013-07-23 08:44:00,61.0,37.0,-100.00,WSW,237,12.0,16.0,41,-99.99,,,0.00,250.000000,,2013-07-23 14:44:00,
2013-07-23 08:52:00,64.0,39.0,-100.00,WNW,295,3.0,16.0,40,0.00,,,0.00,477.000000,,2013-07-23 14:52:00,
2013-07-23 09:11:00,64.0,39.0,-100.00,WNW,295,3.0,16.0,40,0.00,,,0.00,477.000000,,2013-07-23 15:11:00,
2013-07-23 09:24:00,64.0,39.0,-100.00,WNW,295,3.0,16.0,40,0.00,,,0.00,477.000000,,2013-07-23 15:24:00,
2013-07-23 09:32:00,64.0,39.0,-100.00,WNW,295,3.0,16.0,40,0.00,,,0.00,477.000000,,2013-07-23 15:32:00,
2013-07-23 09:43:00,64.0,39.0,-100.00,WNW,295,3.0,16.0,40,0.00,,,0.00,477.000000,,2013-07-23 15:43:00,
2013-07-23 09:52:00,69.0,47.0,-100.00,SE,139,3.0,6.0,46,0.00,,,0.00,688.000000,,2013-07-23 15:52:00,
2013-07-23 10:22:00,69.0,47.0,-100.00,SE,139,3.0,6.0,46,0.00,,,0.00,688.000000,,2013-07-23 16:22:00,
2013-07-23 10:33:00,69.0,47.0,-100.00,SE,139,3.0,6.0,46,0.00,,,0.00,688.000000,,2013-07-23 16:33:00,
2013-07-23 10:43:00,69.0,47.0,-100.00,SE,139,3.0,6.0,46,0.00,,,0.00,688.000000,,2013-07-23 16:43:00,
2013-07-23 10:52:00,70.0,49.0,-100.00,West,264,1.0,10.0,47,0.00,,,0.00,863.000000,,2013-07-23 16:52:00,
2013-07-23 11:22:00,70.0,49.0,-100.00,West,264,1.0,10.0,47,0.00,,,0.00,863.000000,,2013-07-23 17:22:00,
2013-07-23 11:32:00,70.0,49.0,-100.00,West,264,1.0,10.0,47,0.00,,,0.00,863.000000,,2013-07-23 17:32:00,
2013-07-23 11:42:00,70.0,49.0,-100.00,West,264,1.0,10.0,47,0.00,,,0.00,863.000000,,2013-07-23 17:42:00,
2013-07-23 11:52:00,72.0,48.0,-100.00,West,267,2.0,8.0,43,0.00,,,0.00,1002.000000,,2013-07-23 17:52:00,
2013-07-23 12:12:00,72.0,48.0,-100.00,West,267,2.0,8.0,43,0.00,,,0.00,1002.000000,,2013-07-23 18:12:00,
2013-07-23 12:24:00,72.0,48.0,-100.00,West,267,2.0,8.0,43,0.00,,,0.00,1002.000000,,2013-07-23 18:24:00,
2013-07-23 12:34:00,72.0,48.0,-100.00,West,267,2.0,8.0,43,0.00,,,0.00,1002.000000,,2013-07-23 18:34:00,
2013-07-23 12:46:00,72.0,48.0,-100.00,West,267,2.0,8.0,43,0.00,,,0.00,1002.000000,,2013-07-23 18:46:00,
2013-07-23 12:52:00,69.0,47.0,-100.00,SSW,203,4.0,12.0,45,0.00,,,0.00,1093.000000,,2013-07-23 18:52:00,
2013-07-23 13:15:00,69.0,47.0,-100.00,SSW,203,4.0,12.0,45,0.00,,,0.00,1093.000000,,2013-07-23 19:15:00,
2013-07-23 13:26:00,69.0,47.0,-100.00,SSW,203,4.0,12.0,45,0.00,,,0.00,1093.000000,,2013-07-23 19:26:00,
2013-07-23 13:33:00,69.0,47.0,-100.00,SSW,203,4.0,12.0,45,0.00,,,0.00,1093.000000,,2013-07-23 19:33:00,
2013-07-23 13:46:00,69.0,47.0,-100.00,SSW,203,4.0,12.0,45,0.00,,,0.00,1093.000000,,2013-07-23 19:46:00,
2013-07-23 13:52:00,69.0,46.0,-100.00,South,180,5.0,17.0,43,0.00,,,0.00,1121.000000,,2013-07-23 19:52:00,
2013-07-23 14:13:00,69.0,46.0,-100.00,South,180,5.0,17.0,43,0.00,,,0.00,1121.000000,,2013-07-23 20:13:00,
2013-07-23 14:23:00,69.0,46.0,-100.00,South,180,5.0,17.0,43,0.00,,,0.00,1121.000000,,2013-07-23 20:23:00,
2013-07-23 14:34:00,69.0,46.0,-100.00,South,180,5.0,17.0,43,0.00,,,0.00,1121.000000,,2013-07-23 20:34:00,
2013-07-23 14:44:00,69.0,46.0,-100.00,South,180,5.0,17.0,43,0.00,,,0.00,1121.000000,,2013-07-23 20:44:00,
2013-07-23 14:52:00,71.0,45.0,-100.00,SSW,200,7.0,19.0,39,0.00,,,0.00,1094.000000,,2013-07-23 20:52:00,
2013-07-23 15:23:00,71.0,45.0,-100.00,SSW,200,7.0,19.0,39,0.00,,,0.00,1094.000000,,2013-07-23 21:23:00,
2013-07-23 15:35:00,71.0,45.0,-100.00,SSW,200,7.0,19.0,39,0.00,,,0.00,1094.000000,,2013-07-23 21:35:00,
2013-07-23 15:46:00,71.0,45.0,-100.00,SSW,200,7.0,19.0,39,0.00,,,0.00,1094.000000,,2013-07-23 21:46:00,
2013-07-23 15:52:00,72.0,44.0,-100.00,SE,133,8.0,19.0,37,0.00,,,0.00,1001.000000,,2013-07-23 21:52:00,
2013-07-23 16:12:00,72.0,44.0,-100.00,SE,133,8.0,19.0,37,0.00,,,0.00,1001.000000,,2013-07-23 22:12:00,
2013-07-23 16:23:00,72.0,44.0,-100.00,SE,133,8.0,19.0,37,0.00,,,0.00,1001.000000,,2013-07-23 22:23:00,
2013-07-23 16:34:00,72.0,44.0,-100.00,SE,133,8.0,19.0,37,0.00,,,0.00,1001.000000,,2013-07-23 22:34:00,
2013-07-23 16:52:00,72.0,44.0,-100.00,SE,146,7.0,21.0,37,0.00,,,0.00,858.000000,,2013-07-23 22:52:00,
2013-07-23 17:12:00,72.0,44.0,-100.00,SE,146,7.0,21.0,37,0.00,,,0.00,858.000000,,2013-07-23 23:12:00,
2013-07-23 17:24:00,72.0,44.0,-100.00,SE,146,7.0,21.0,37,0.00,,,0.00,858.000000,,2013-07-23 23:24:00,
2013-07-23 17:35:00,72.0,44.0,-100.00,SE,146,7.0,21.0,37,0.00,,,0.00,858.000000,,2013-07-23 23:35:00,
2013-07-23 17:44:00,72.0,44.0,-100.00,SE,146,7.0,21.0,37,0.00,,,0.00,858.000000,,2013-07-23 23:44:00,
2013-07-23 17:52:00,72.0,44.0,-100.00,SSW,201,7.0,19.0,37,0.00,,,0.00,689.000000,,2013-07-23 23:52:00,
2013-07-23 18:13:00,72.0,44.0,-100.00,SSW,201,7.0,19.0,37,0.00,,,0.00,689.000000,,2013-07-24 00:13:00,
2013-07-23 18:26:00,72.0,44.0,-100.00,SSW,201,7.0,19.0,37,0.00,,,0.00,689.000000,,2013-07-24 00:26:00,
2013-07-23 18:34:00,72.0,44.0,-100.00,SSW,201,7.0,19.0,37,0.00,,,0.00,689.000000,,2013-07-24 00:34:00,
2013-07-23 18:47:00,72.0,44.0,-100.00,SSW,201,7.0,19.0,37,0.00,,,0.00,689.000000,,2013-07-24 00:47:00,
2013-07-23 18:52:00,71.0,43.0,-100.00,SSE,163,7.0,16.0,37,0.00,,,0.00,497.000000,,2013-07-24 00:52:00,
2013-07-23 19:13:00,71.0,43.0,-100.00,SSE,163,7.0,16.0,37,0.00,,,0.00,497.000000,,2013-07-24 01:13:00,
2013-07-23 19:24:00,71.0,43.0,-100.00,SSE,163,7.0,16.0,37,0.00,,,0.00,497.000000,,2013-07-24 01:24:00,
2013-07-23 19:33:00,71.0,43.0,-100.00,SSE,163,7.0,16.0,37,0.00,,,0.00,497.000000,,2013-07-24 01:33:00,
2013-07-23 19:44:00,71.0,43.0,-100.00,SSE,163,7.0,16.0,37,0.00,,,0.00,497.000000,,2013-07-24 01:44:00,
2013-07-23 19:52:00,70.0,45.0,-100.00,SE,141,5.0,14.0,41,0.00,,,0.00,235.000000,,2013-07-24 01:52:00,
2013-07-23 20:16:00,70.0,45.0,-100.00,SE,141,5.0,14.0,41,0.00,,,0.00,235.000000,,2013-07-24 02:16:00,
2013-07-23 20:26:00,70.0,45.0,-100.00,SE,141,5.0,14.0,41,0.00,,,0.00,235.000000,,2013-07-24 02:26:00,
2013-07-23 20:46:00,70.0,45.0,-100.00,SE,141,5.0,14.0,41,0.00,,,0.00,235.000000,,2013-07-24 02:46:00,
2013-07-23 20:52:00,64.0,47.0,-100.00,SE,132,9.0,11.0,54,0.00,,,0.00,20.000000,,2013-07-24 02:52:00,
2013-07-23 21:13:00,64.0,47.0,-100.00,SE,132,9.0,11.0,54,0.00,,,0.00,20.000000,,2013-07-24 03:13:00,
2013-07-23 21:23:00,64.0,47.0,-100.00,SE,132,9.0,11.0,54,0.00,,,0.00,20.000000,,2013-07-24 03:23:00,
2013-07-23 21:36:00,64.0,47.0,-100.00,SE,132,9.0,11.0,54,0.00,,,0.00,20.000000,,2013-07-24 03:36:00,
2013-07-23 21:44:00,64.0,47.0,-100.00,SE,132,9.0,11.0,54,0.00,,,0.00,20.000000,,2013-07-24 03:44:00,
2013-07-23 21:52:00,61.0,48.0,-100.00,ESE,109,12.0,17.0,62,0.00,,,0.00,1.000000,,2013-07-24 03:52:00,
2013-07-23 22:11:00,61.0,48.0,-100.00,ESE,109,12.0,17.0,62,0.00,,,0.00,1.000000,,2013-07-24 04:11:00,
2013-07-23 22:22:00,61.0,48.0,-100.00,ESE,109,12.0,17.0,62,0.00,,,0.00,1.000000,,2013-07-24 04:22:00,
2013-07-23 22:32:00,61.0,48.0,-100.00,ESE,109,12.0,17.0,62,0.00,,,0.00,1.000000,,2013-07-24 04:32:00,
2013-07-23 22:43:00,61.0,48.0,-100.00,ESE,109,12.0,17.0,62,0.00,,,0.00,1.000000,,2013-07-24 04:43:00,
2013-07-23 22:52:00,59.0,46.0,-100.00,East,99,10.0,18.0,61,-99.99,,,0.00,0.000000,,2013-07-24 04:52:00,
2013-07-23 23:11:00,59.0,46.0,-100.00,East,99,10.0,18.0,61,-99.99,,,0.00,0.000000,,2013-07-24 05:11:00,
2013-07-23 23:22:00,59.0,46.0,-100.00,East,99,10.0,18.0,61,-99.99,,,0.00,0.000000,,2013-07-24 05:22:00,
2013-07-23 23:32:00,59.0,46.0,-100.00,East,99,10.0,18.0,61,-99.99,,,0.00,0.000000,,2013-07-24 05:32:00,
2013-07-23 23:43:00,59.0,46.0,-100.00,East,99,10.0,18.0,61,-99.99,,,0.00,0.000000,,2013-07-24 05:43:00,
2013-07-23 23:52:00,59.0,46.0,-100.00,ESE,108,10.0,16.0,61,-99.99,,,0.00,0.000000,,2013-07-24 05:52:00,